Home > Weather > Lappeenranta > Past weeks

Flag for Finland Weather for the Past 2 Weeks in Lappeenranta, Finland

Now
43 °F

Light rain. Partly cloudy.


Feels Like: 39 °F
Forecast: 40 / 53 °F
Wind: 7 mph from Northwest

Location: Lappeenranta

Current Time: Apr 30, 2016 at 2:51:29 AM

Latest Report: Apr 30, 2016 at 2:20 AM


Visibility: N/A

Pressure: 30.30 "Hg

Humidity: 93%

Dew Point: 41 °F

Location of LappeenrantaLocation

Historic Weather in Lappeenranta — Graph

°F

Lappeenranta Temperature Yesterday

Maximum temperature yesterday: 55 °F (at 12:20 AM)
Minimum temperature yesterday: 41 °F (at 9:20 AM)
Average temperature yesterday: 46 °F

High & Low Weather Summary for the Past Weeks

 TemperatureHumidityPressure
High59 °F (Apr 28, 4:20 PM)100% (Apr 17, 8:50 PM)30.33 "Hg (Apr 17, 8:50 PM)
Low27 °F (Apr 22, 1:50 AM)29% (Apr 15, 7:20 PM)29.42 "Hg (Apr 18, 4:20 AM)
Average41 °F79%29.74 "Hg
* Reported Apr 15 1:20 AM — Apr 30 1:20 AM, Lappeenranta, Weather by CustomWeather, © 2016

Note: Actual official high and low records may vary slightly from our data, if they occured in-between our weather recording intervals... More about our weather records

Advertising

Lappeenranta Weather History for the Previous 24 Hours

Scroll right to see more
 ConditionsComfort  
Time TempWeatherWind HumidityBarometerVisibility
1:20 AM
Sat, Apr 30
43 °FClear.5 mph93%30.30 "Hg10 mi
12:50 AM43 °FSprinkles. Mostly cloudy.3 mph93%30.30 "HgN/A
12:20 AM43 °FSprinkles. Overcast.5 mph93%30.30 "HgN/A
11:50 PM
Fri, Apr 29
43 °FLight rain. Mostly cloudy.6 mph93%30.30 "HgN/A
11:20 PM43 °FLight rain. Overcast.7 mph87%30.30 "HgN/A
10:50 PM43 °FLight rain. Overcast.5 mph87%30.33 "HgN/A
10:20 PM43 °FLight rain. Mostly cloudy.5 mph87%30.33 "HgN/A
9:50 PM43 °FLight rain. Overcast.5 mph93%30.33 "HgN/A
9:20 PM43 °FLight rain. Cloudy.6 mph93%30.33 "HgN/A
8:50 PM45 °FLight rain. Overcast.3 mph87%30.33 "HgN/A
8:20 PM45 °FLight rain. Partly sunny.3 mph87%30.33 "HgN/A
7:50 PM45 °FLight rain. Partly sunny.3 mph87%30.33 "HgN/A
7:20 PM45 °FPartly sunny.3 mph87%30.33 "HgN/A
6:50 PM45 °FPartly sunny.2 mph87%30.33 "HgN/A
6:20 PM45 °FSunny.3 mph87%30.33 "Hg10 mi
5:50 PM46 °FSunny.6 mph82%30.33 "Hg10 mi
5:20 PM46 °FSunny.3 mph82%30.33 "Hg10 mi
4:50 PM46 °FSunny.2 mph82%30.33 "Hg10 mi
4:20 PM46 °FSunny.3 mph82%30.30 "Hg10 mi
3:50 PM46 °FSunny.3 mph82%30.30 "Hg10 mi
3:20 PM46 °FPassing clouds.6 mph76%30.30 "HgN/A
2:50 PM46 °FPassing clouds.5 mph76%30.30 "HgN/A
2:20 PM46 °FPassing clouds.7 mph82%30.30 "HgN/A
1:50 PM45 °FPassing clouds.5 mph81%30.30 "HgN/A
1:20 PM45 °FScattered clouds.5 mph81%30.30 "HgN/A
12:50 PM43 °FPartly sunny.5 mph87%30.30 "HgN/A
12:20 PM43 °FPartly sunny.3 mph87%30.30 "HgN/A
11:50 AM43 °FPartly sunny.3 mph87%30.30 "HgN/A
11:20 AM43 °FLow clouds.3 mph93%30.27 "HgN/A
10:50 AM41 °FLow clouds.7 mph100%30.27 "HgN/A
10:20 AM41 °FMostly cloudy.6 mph100%30.24 "HgN/A
9:50 AM41 °FPartly sunny.7 mph100%30.24 "HgN/A
9:20 AM41 °FLow clouds.8 mph100%30.24 "HgN/A
8:50 AM43 °FLow clouds.7 mph93%30.21 "HgN/A
8:20 AM43 °FPartly sunny.7 mph100%30.21 "HgN/A
7:50 AM43 °FSprinkles. Partly sunny.9 mph100%30.21 "HgN/A
7:20 AM45 °FLight rain. Broken clouds.9 mph93%30.18 "HgN/A
6:50 AM45 °FLight rain. Low clouds.8 mph93%30.15 "HgN/A
6:20 AM46 °FLight rain. Partly sunny.7 mph93%30.15 "HgN/A
4:20 AM48 °FLight rain. Partly cloudy.2 mph100%30.07 "HgN/A
3:50 AM48 °FLight rain. Passing clouds.3 mph100%30.07 "HgN/A
3:20 AM48 °FSprinkles. Passing clouds.5 mph100%30.07 "HgN/A
2:50 AM50 °FSprinkles. Partly cloudy.7 mph82%30.04 "HgN/A
2:20 AM52 °FSprinkles. Mostly cloudy.7 mph72%30.01 "HgN/A
Weather by CustomWeather, © 2016

See weather overviewHow to use our weather pages